Home   Weather   Darwin   Past weeks

Flag for Australia Past Weather in Darwin, Northern Territory, Australia — Yesterday and Last 2 Weeks

82 °F

Passing clouds.

Feels Like: 85 °F
Forecast: 76 / 94 °F
Wind: 16 mph from East

Location: Darwin Airport

Current Time: Oct 24, 2016 at 9:25:09 AM

Latest Report: Oct 24, 2016 at 8:30 AM

Visibility: N/A

Pressure: 29.86 "Hg

Humidity: 62%

Dew Point: 68 °F

Location of DarwinLocation

Past Weather in Darwin — Graph


Darwin Temperature Yesterday

Maximum temperature yesterday: 91 °F (at 4:00 PM)
Minimum temperature yesterday: 73 °F (at 5:30 AM)
Average temperature yesterday: 81 °F

High & Low Weather Summary for the Past Weeks

High95 °F (Oct 17, 2:30 PM)100% (Oct 21, 6:30 AM)29.98 "Hg (Oct 21, 6:30 AM)
Low73 °F (Oct 22, 10:30 AM)32% (Oct 17, 3:30 PM)29.71 "Hg (Oct 14, 4:30 PM)
Average84 °F70%29.83 "Hg
* Reported Oct 9 7:30 AM — Oct 24 8:00 AM, Darwin, Weather by CustomWeather, © 2016

Note: Actual official high and low records may vary slightly from our data, if they occured in-between our weather recording intervals... More about our weather records


Darwin Weather History for the Previous 24 Hours

Scroll right to see more
Time TempWeatherWind HumidityBarometerVisibility
8:00 AM
Mon, Oct 24
81 °FPassing clouds.12 mph62%29.86 "HgN/A
7:30 AM79 °FPassing clouds.14 mph61%29.86 "HgN/A
7:00 AM77 °FPassing clouds.13 mph69%29.83 "HgN/A
6:30 AM77 °FPassing clouds.12 mph79%29.83 "HgN/A
6:00 AM79 °FPassing clouds.8 mph74%29.80 "HgN/A
5:30 AM77 °FClear.8 mph89%29.80 "Hg10 mi
5:00 AM79 °FClear.6 mph84%29.80 "Hg10 mi
4:30 AM79 °FClear.7 mph89%29.80 "Hg10 mi
4:00 AM79 °FClear.7 mph89%29.80 "Hg10 mi
3:30 AM79 °FClear.6 mph89%29.80 "Hg10 mi
3:00 AM79 °FClear.5 mph89%29.80 "Hg10 mi
2:30 AM81 °FClear.6 mph84%29.80 "Hg10 mi
2:00 AM81 °FClear.7 mph84%29.80 "Hg10 mi
1:30 AM81 °FClear.7 mph79%29.83 "Hg10 mi
1:00 AM81 °FClear.7 mph79%29.83 "Hg10 mi
12:30 AM79 °FClear.5 mph89%29.83 "Hg10 mi
12:00 AM82 °FClear.6 mph74%29.86 "Hg10 mi
11:30 PM
Sun, Oct 23
81 °FClear.6 mph84%29.86 "Hg10 mi
10:30 PM82 °FClear.6 mph79%29.86 "Hg10 mi
10:00 PM82 °FClear.7 mph79%29.86 "Hg10 mi
9:30 PM82 °FClear.7 mph79%29.83 "Hg10 mi
9:00 PM82 °FClear.6 mph79%29.83 "Hg10 mi
8:30 PM81 °FClear.5 mph84%29.83 "Hg10 mi
8:00 PM82 °FPassing clouds.6 mph79%29.83 "HgN/A
7:30 PM82 °FPassing clouds.7 mph79%29.80 "HgN/A
7:00 PM84 °FScattered clouds.8 mph70%29.80 "HgN/A
6:30 PM86 °FSunny.9 mph62%29.80 "Hg10 mi
6:00 PM88 °FPartly sunny.10 mph59%29.77 "HgN/A
5:30 PM90 °FBroken clouds.12 mph55%29.77 "HgN/A
5:00 PM91 °FSunny.10 mph41%29.77 "Hg10 mi
4:30 PM91 °FSunny.8 mph41%29.77 "Hg10 mi
4:00 PM91 °FSunny.7 mph44%29.77 "Hg10 mi
3:30 PM90 °FBroken clouds.5 mph46%29.77 "HgN/A
2:30 PM90 °FBroken clouds.9 mph46%29.80 "HgN/A
2:00 PM88 °FBroken clouds.13 mph52%29.83 "HgN/A
1:30 PM88 °FBroken clouds.13 mph49%29.83 "HgN/A
1:00 PM88 °FPartly sunny.14 mph49%29.86 "HgN/A
12:30 PM86 °FPartly sunny.10 mph52%29.86 "HgN/A
12:00 PM86 °FPartly sunny.16 mph55%29.89 "HgN/A
11:30 AM86 °FScattered clouds.16 mph55%29.89 "HgN/A
11:00 AM84 °FSunny.16 mph55%29.89 "Hg10 mi
10:30 AM82 °FSunny.17 mph62%29.92 "Hg10 mi
10:00 AM81 °FSunny.18 mph66%29.92 "Hg10 mi
9:30 AM81 °FSunny.20 mph62%29.92 "Hg10 mi
9:00 AM79 °FSunny.20 mph65%29.92 "Hg10 mi
Weather by CustomWeather, © 2016

See weather overviewHow to use our weather pages